Hourly Data Report for May 20, 2012

All times are specified in Local Standard Time (LST). Add 1 hour to adjust for Daylight Saving Time where and when it is observed.

PENTICTON A
BRITISH COLUMBIA

49°27'45.000" N
119°36'08.000" W
344.40 m
1126146
71889
YYF

Download Data

Hourly Data (May 2012)
Hourly Data Report for May 20, 2012
Temp Definition
°C
Dew Point Temp Definition
°C
Rel Hum Definition
%
Wind Dir Definition
10's deg

Wind Spd Definition
km/h
Visibility Definition
km
Stn Press Definition
kPa
Hmdx Definition


Wind Chill Definition


Weather Definition


TIME
00:00 Legend Double Dagger 10.1 2.5 59   0 10.0 97.55     LegendNANA
01:00 Legend Double Dagger 10.2 1.3 54 35 9 10.0 97.56     Mostly Cloudy
02:00 Legend Double Dagger 10.2 1.6 55 1 9 10.0 97.57     LegendNANA
03:00 Legend Double Dagger 11.0 1.6 52 36 5 10.0 97.59     LegendNANA
04:00 Legend Double Dagger 10.2 3.1 61 1 6 10.0 97.58     Mostly Cloudy
05:00 Legend Double Dagger 10.4 2.8 59 35 8 10.0 97.58     LegendNANA
06:00 Legend Double Dagger 11.8 4.6 61 0 6 10.0 97.60     LegendNANA
07:00 Legend Double Dagger 13.0 4.2 55 34 9 10.0 97.59     Mostly Cloudy
08:00 Legend Double Dagger 13.6 4.3 53 35 9 10.0 97.59     LegendNANA
09:00 Legend Double Dagger 14.3 3.2 47 0 10 10.0 97.59     LegendNANA
10:00 Legend Double Dagger 14.6 4.1 49 34 10 10.0 97.54     Cloudy
11:00 Legend Double Dagger 14.9 3.8 47 35 10 10.0 97.51     LegendNANA
12:00 Legend Double Dagger 16.6 4.1 43 35 13 10.0 97.46     LegendNANA
13:00 Legend Double Dagger 15.6 4.1 46 0 18 10.0 97.41     Cloudy
14:00 Legend Double Dagger 17.9 5.6 44 36 17 10.0 97.35     LegendNANA
15:00 Legend Double Dagger 20.3 7.1 42 17 30 10.0 97.32     LegendNANA
16:00 Legend Double Dagger 19.9 8.7 48 18 33 10.0 97.31     Cloudy
17:00 Legend Double Dagger 17.8 8.7 55 19 29 10.0 97.28     LegendNANA
18:00 Legend Double Dagger 17.7 9.4 58 19 23 10.0 97.26     LegendNANA
19:00 Legend Double Dagger 16.5 10.4 67 20 18 10.0 97.27     Rain Showers
20:00 Legend Double Dagger 16.0 9.7 66 16 12 10.0 97.27     LegendNANA
21:00 Legend Double Dagger 16.2 9.5 64 15 10 10.0 97.27     LegendNANA
22:00 Legend Double Dagger 13.6 9.9 78 34 13 10.0 97.32     Cloudy
23:00 Legend Double Dagger 13.3 10.0 80 2 6 10.0 97.31     LegendNANA

Notes on Data Quality.

Legend

  • E = Estimated
  • M = Missing
  • NA = Not Available
  • ‡ = Partner data that is not subject to review by the National Climate Archives
Date modified: